Other Public Products
Issued by NWS Grand Forks, ND

Home | Current Version | Previous Version | Graphics & Text | Print | Product List | Glossary On
Versions: 1 2 3 4 5 6 7 8 9 10 11 12 13 14 15 16 17 18 19 20 21 22 23 24 25 26 27 28 29 30 31 32 33 34 35 36 37 38 39 40 41 42 43 44 45 46 47 48 49 50
724
FPUS83 KFGF 010331
OPUFGF
PRAIRIE TO PINES WEATHER ROUNDUP
NATIONAL WEATHER SERVICE EASTERN NORTH DAKOTA/GRAND FORKS ND
1000 PM CDT WED AUG 31 2016

 **SATELLITE DATA USED TO AUGMENT SKY COVER AT AUTOMATED STATIONS**
 *****  WEATHER ACROSS EASTERN NORTH DAKOTA  *****

CITY           SKY/WX    TMP DP  RH WIND       PRES   REMARKS
GRAND FORKS    CLOUDY    65  56  72 E6        30.22R
GRAND FORKS AF CLOUDY    64  56  73 E6        30.22R
GRAND CITY NWS   N/A     64 N/A N/A E15         N/A
BUXTON           N/A     69  64  85 NE3         N/A
DEVILS LAKE    CLOUDY    65  55  70 E10       30.23R
FARGO          PTCLDY    64  56  75 E6        30.20S
WAHPETON ARPT  CLOUDY    64  52  63 E5        30.21S
$$

 *****  WEATHER ACROSS CENTRAL AND WESTERN NORTH DAKOTA  *****

CITY           SKY/WX    TMP DP  RH WIND       PRES   REMARKS
JAMESTOWN      CLEAR     65  56  72 E12       30.18F
BISMARCK       CLEAR     67  63  87 E9        30.16S
MINOT          CLEAR     66  59  78 E13       30.13R
MINOT AFB      CLEAR     65  59  81 SE20      30.11R
GARRISON         N/A     68  60  75 SE16G24   30.12S
WILLISTON      CLEAR     83  52  34 SE12G21   30.00R
DICKINSON      CLEAR     72  51  47 SE15      30.09R
HETTINGER      CLEAR     73  53  49 SE10      30.13R
$$

 *****  OTHER OBSERVATIONS NORTHEAST NORTH DAKOTA  *****

CITY           SKY/WX    TMP DP  RH WIND       PRES   REMARKS
WALHALLA       FAIR      59  59 100 E3        30.25R
LANGDON        FAIR      59  54  82 E12       30.25S
CAVALIER       FAIR      61  54  77 NE5       30.25R
GRAFTON        FAIR      61  57  88 NE5       30.25R
CANDO          FAIR      63  55  77 SE14      30.23F
FORT TOTTEN      N/A     65  55  69 E7        29.95S
ROLLA          FAIR      59  57  94 E8        30.23R
RUGBY          FAIR      63  57  82 E17G23    30.18R
 ***** THE ABOVE OBSERVATIONS ARE NON NWS ARE NOT QUALITY
        CONTROLLED AND MAY MIS-REPORT RAIN FOR SNOW...
$$

 *****  OTHER OBSERVATIONS SOUTHEAST NORTH DAKOTA *****

CITY           SKY/WX    TMP DP  RH WIND       PRES   REMARKS
COOPERSTOWN    NOT AVBL
VALLEY CITY    FAIR      64  59  82 E9        30.23R
OAKES            N/A    N/A N/A N/A MISG        N/A
GWINNER        FAIR      63  57  82 NE6       30.21S
SHEYENNE NWR     N/A     65  55  70 NE6       29.95
BUFFALO          N/A     62  56  81 E7          N/A
WYNDMERE         N/A     61  57  88 CALM        N/A
 ***** THE ABOVE OBSERVATIONS ARE NON NWS ARE NOT QUALITY
       CONTROLLED AND MAY MIS-REPORT RAIN FOR SNOW...
$$

  *****  WEATHER ACROSS NORTHERN MINNESOTA  *****

CITY           SKY/WX    TMP DP  RH WIND       PRES   REMARKS
FLAG ISLAND    CLEAR     61  52  72 E3        30.27R
WARROAD        CLEAR     61  55  82 NE6       30.27S
ROSEAU         CLEAR     54  48  82 E5        30.25F
HALLOCK        PTCLDY    59  54  82 E6        30.24R
THF RVR FALLS  CLOUDY    59  53  80 NE8       30.25R
HALSTAD          N/A     62  57  85 E5          N/A
FOSSTON        CLOUDY    54  52  94 CALM      30.24S
BAUDETTE       CLEAR     59  53  80 NE10      30.26R
WASKISH        CLEAR     57  54  88 CALM      30.26S
CROOKSTON      CLOUDY    63  55  77 E5        30.24R
$$
  *****  WEATHER ACROSS CENTRAL AND WEST MINNESOTA  *****

CITY           SKY/WX    TMP DP  RH WIND       PRES   REMARKS
BEMIDJI        CLOUDY    55  52  89 CALM      30.25S
PARK RAPIDS    CLOUDY    64  54  69 NE3       30.24R
WADENA         CLOUDY    61  54  77 NE3       30.23
DETROIT LAKES  MOCLDY    63  55  77 CALM      30.24S
MOORHEAD       PTCLDY    63  55  77 E5        30.22R
FERGUS FALLS   PTCLDY    64  55  72 E3        30.22S
ELBOW LAKE     FAIR      66  59  78 E3        30.22R
MORRIS MN      CLEAR     64  57  77 CALM      30.20S
STAPLES        CLOUDY    61  54  77 CALM      30.24R
WHEATON        CLEAR     64  57  77 E5        30.22S
$$
  *****  WEATHER ELSEWHERE ACROSS MINNESOTA  *****

CITY           SKY/WX    TMP DP  RH WIND       PRES   REMARKS
DULUTH         PTCLDY    59  55  87 CALM      30.23R
INTRNTL FALLS  CLEAR     61  52  72 NE6       30.26R
ELY            CLOUDY    61  54  77 CALM      30.25S
CLOQUET        CLEAR     57  54  88 CALM      30.23S
BRAINERD       CLEAR     61  57  87 NE3       30.23R
HIBBING        CLEAR     50  50 100 CALM      30.24S
ALEXANDRIA     CLEAR     63  58  83 NE5       30.23S
SAINT CLOUD    CLEAR     61  55  81 N3        30.21R
MINNEAPOLIS    CLEAR     68  51  54 N6        30.19R
$$

  *****  WEATHER ACROSS SOUTH DAKOTA  *****

CITY           SKY/WX    TMP DP  RH WIND       PRES   REMARKS
SIOUX FALLS    PTCLDY    67  61  81 E3        30.21R
BROOKINGS      CLEAR     69  59  70 E7        30.21R
WATERTOWN      CLEAR     69  58  67 SE5       30.22R
HURON          CLEAR     69  60  73 E8        30.17R
SISSETON         N/A     63  59  87 S3        30.20R
ABERDEEN       CLEAR     69  59  70 E8        30.18R
MITCHELL       CLEAR     70  59  68 S8        30.19R
PIERRE         CLEAR     73  63  70 SE10      30.14R
MOBRIDGE       CLEAR     73  61  65 E15       30.13R
RAPID CITY     CLEAR     64  54  69 SE6       30.16R
$$

  *****  SOME WEATHER IN NEARBY STATES *****

CITY           SKY/WX    TMP DP  RH WIND       PRES   REMARKS
GLASGOW MT     CLEAR     83  41  22 SE13      29.85R
GREAT FALLS MT PTCLDY    77  38  24 E7        29.96F
CHEYENNE WY    PTCLDY    63  55  75 S16       30.32R
SCOTTSBLUFF NE CLEAR     67  59  75 E8        30.22R
OMAHA NE       CLEAR     66  61  84 NW3       30.17R
DES MOINES IA  PTCLDY    70  58  65 NE6       30.15R
DAVENPORT IA   CLEAR     61  58  90 NE6       30.13R
CHICAGO IL     CLEAR     66  56  70 N6        30.09S
EAU CLAIRE WI  PTCLDY    61  55  81 N5        30.19R
LA CROSSE WI   CLEAR     65  60  84 N5        30.16R
$$

  *****  SOME NATIONAL WEATHER *****

CITY           SKY/WX    TMP DP  RH WIND       PRES   REMARKS
LA GUARDIA NY  CLOUDY    81  65  58 S13       29.87F
RALEIGH NC     PTCLDY    79  71  76 S6        29.94S
ATLANTA GA     PTCLDY    83  67  58 SE5       29.94R
NEW ORLEANS LA PTCLDY    88  74  63 E3        29.85R HX  96
OKLAHOMA CITY  LGT RAIN  72  71  97 N7        30.08R
ALBUQUERQUE NM CLOUDY    72  56  57 E21       30.24R
SALT LAKE CITY PTCLDY    83  42  23 SE7       29.96R
LOS ANGELES CA CLEAR     69  61  75 SW7       29.84R
BOISE ID       CLEAR     82  40  22 W10       29.83R
SEATTLE WA     CLOUDY    65  56  72 SW10      29.99R
$$

*** WEATHER ACROSS MANITOBA...SASKATCHEWAN AND ONTARIO ***
                ***ONTARIO***

CITY           SKY/WX    TMP DP  RH WIND       PRES   REMARKS
GERALDTON      CLOUDY    54  52  94 N9        30.24S
THUNDER BAY    MOCLDY    57  50  77 VRB2      30.23R
SIOUX LOOKOUT  CLEAR     45  45 100 CALM      30.31R
TORONTO        CLEAR     66  54  63 NW13G20   29.96R
BIG TROUT LK   CLOUDY    52  48  87 N6        30.35R
PICKLE LAKE    NOT AVBL
DRYDEN         CLEAR     54  48  82 NE7       30.31R
KENORA         CLEAR     55  50  82 NE8G20    30.30R
$$
                *** MANITOBA***

CITY           SKY/WX    TMP DP  RH WIND       PRES   REMARKS
BRANDON        MOCLDY    59  54  82 E14       30.22S
DAUPHIN        CLEAR     54  50  87 E7        30.23S
ISLAND LAKE    CLOUDY    55  50  82 E5        30.35
PILOT MOUND      N/A     59  52  77 E12         N/A
THE PAS        PTCLDY    55  46  71 SE7       30.23F
THOMPSON       PTCLDY    54  43  66 VRB2      30.30
WINNIPEG       CLEAR     57  54  88 NE9       30.25S
LYNN LAKE      PTCLDY    54  48  82 MISG      30.24S
CHURCHILL      MOCLDY    50  43  76 SE10      30.34
GILLAM         PTCLDY    52  45  76 SE5       30.34R
$$
                ***SASKATCHEWAN***

CITY           SKY/WX    TMP DP  RH WIND       PRES   REMARKS
ESTEVAN        PTCLDY    64  59  82 E22G30    30.06R
KINDERSLEY     CLOUDY    70  59  68 SE13      29.88R
LLOYDMINSTER   CLOUDY    70  57  64 SE18G25   29.89S
PRINCE ALBERT  CLOUDY    64  54  68 E15G21    30.05S
REGINA         CLEAR     68  55  64 E24G31    29.99S
YORKTON        PTCLDY    61  54  77 E16G22    30.14S  C1F1C2F2C3F3C4F4C5F5C6F6C7F7C8F8C9F9CaFaCbFbCcFcCdFdCe!



USA.gov is the U.S. government's official web portal to all federal, state and local government web resources and services.